Home > Weather > Cranbrook > Past weeks

Flag for Canada Past Weather in Cranbrook, British Columbia, Canada — Yesterday and Last 2 Weeks

Now
79 °F

Scattered clouds.


Feels Like: 79 °F
Forecast: 55 / 86 °F
Wind: 3 mph from North

Location: Cranbrook

Current Time: Jul 27, 2016 at 3:21:32 PM

Latest Report: Jul 27, 2016 at 2:00 PM


Visibility: 25 mi

Pressure: 30.08 "Hg (27.04 "Hg at 933m altitude)

Humidity: 39%

Dew Point: 52 °F

Location of CranbrookLocation

Past Weather in Cranbrook — Graph

°F

Cranbrook Temperature Yesterday

Maximum temperature yesterday: 81 °F (at 6:00 PM)
Minimum temperature yesterday: 57 °F (at 3:00 AM)
Average temperature yesterday: 68 °F

High & Low Weather Summary for the Past Weeks

 TemperatureHumidityPressure
High88 °F (Jul 25, 3:00 PM)100% (Jul 19, 4:00 AM)30.27 "Hg (Jul 19, 4:00 AM)
Low46 °F (Jul 14, 6:00 AM)11% (Jul 21, 7:00 PM)29.84 "Hg (Jul 18, 6:00 PM)
Average65 °F57%30.03 "Hg
* Reported Jul 12 2:00 PM — Jul 27 2:00 PM, Cranbrook, Weather by CustomWeather, © 2016

Note: Actual official high and low records may vary slightly from our data, if they occured in-between our weather recording intervals... More about our weather records

Advertising

Cranbrook Weather History for the Previous 24 Hours

Scroll right to see more
 ConditionsComfort  
Time TempWeatherWind HumidityBarometerVisibility
2:00 PM
Wed, Jul 27
79 °FScattered clouds.3 mph39%30.08 "Hg25 mi
1:00 PM77 °FScattered clouds.5 mph42%30.11 "Hg25 mi
12:00 PM73 °FBroken clouds.6 mph47%30.13 "Hg25 mi
11:00 AM70 °FBroken clouds.3 mph53%30.13 "Hg25 mi
10:00 AM66 °FBroken clouds.2 mph60%30.14 "Hg25 mi
9:00 AM61 °FPartly sunny.2 mph68%30.14 "Hg25 mi
8:00 AM61 °FPartly cloudy.2 mph63%30.12 "Hg25 mi
7:00 AM59 °FPartly cloudy.2 mph68%30.11 "Hg25 mi
6:00 AM59 °FPassing clouds.2 mph63%30.09 "Hg25 mi
5:00 AM61 °FPassing clouds.6 mph59%30.08 "Hg25 mi
4:00 AM61 °FPassing clouds.9 mph63%30.07 "Hg25 mi
3:00 AM63 °FPassing clouds.7 mph59%30.07 "Hg25 mi
2:00 AM64 °FPassing clouds.8 mph56%30.08 "Hg25 mi
1:00 AM66 °FPassing clouds.7 mph56%30.08 "Hg25 mi
12:00 AM66 °FPassing clouds.7 mph64%30.07 "Hg25 mi
11:00 PM
Tue, Jul 26
68 °FPartly sunny.3 mph60%30.05 "Hg25 mi
10:00 PM72 °FPartly sunny.5 mph53%30.04 "Hg25 mi
9:00 PM77 °FPartly sunny.5 mph44%30.01 "Hg25 mi
8:00 PM77 °FPartly sunny.9 mph44%30.01 "Hg25 mi
7:00 PM79 °FPartly sunny.3 mph39%30.01 "Hg25 mi
6:00 PM81 °FBroken clouds.6 mph37%30.01 "Hg25 mi
5:00 PM79 °FBroken clouds.6 mph42%30.03 "Hg25 mi
4:00 PM77 °FBroken clouds.8 mph47%30.05 "Hg25 mi
3:00 PM73 °FBroken clouds.6 mph53%30.10 "Hg25 mi
Weather by CustomWeather, © 2016

See weather overviewHow to use our weather pages